Regional Weather Roundup
Issued by NWS

Home | Current Version | Previous Version | Graphics & Text | Print | Product List | Glossary On
Versions: 1 2 3 4 5 6 7 8 9 10 11 12 13 14 15 16 17 18 19 20 21 22 23 24 25 26 27 28 29 30 31 32 33 34 35 36 37 38 39 40 41 42 43 44 45 46 47 48 49 50
000
ASUS43 KIND 171359
RWRIN

WEATHER ROUNDUP FOR INDIANA
NATIONAL WEATHER SERVICE INDIANAPOLIS IN
1000 AM EDT WED SEP 17 2014

NOTE: "FAIR" INDICATES FEW OR NO CLOUDS BELOW 12,000 FEET WITH NO
SIGNIFICANT WEATHER AND/OR OBSTRUCTIONS TO VISIBILITY.

* - STATION DOES NOT REPORT WEATHER SUCH AS PRECIPITATION OR FOG.

+ - STATION NOT QUALITY CONTROLLED BY THE NATIONAL WEATHER SERVICE.
    USE DATA WITH CAUTION...ESPECIALLY DEWPOINT AND RELATIVE
    HUMIDITY OBSERVATIONS.

INZ001>003-010>013-019-020-171500-
NORTHWEST INDIANA

CITY           SKY/WX    TMP DP  RH WIND       PRES   REMARKS
GARY /AIRPORT/ MOSUNNY   55  50  82 S3        30.05F
KNOX *+        SUNNY     50  49  95 CALM      30.05F
VALPARAISO     SUNNY     55  51  86 CALM      30.05F

$$

LMZ046-743>745-171500-
SOUTHERN LAKE MICHIGAN

STATION/POSITION TIME  TEMP WIND        PRES
                       AIR  DIR/SP/G
                 (UTC) (F)  (DEG/KT/KT) (MB)
MICHIGAN CITY    1300   52  140/  7/  9   N/A

$$

INZ004-005-014>016-021>024-171500-
NORTH CENTRAL INDIANA

CITY           SKY/WX    TMP DP  RH WIND       PRES   REMARKS
ELKHART        SUNNY     54  48  82 CALM      30.07F
GOSHEN         SUNNY     57  49  74 CALM      30.06F
SOUTH BEND     SUNNY     56  47  71 S3        30.06F
WARSAW +       CLOUDY    54  50  87 CALM      30.07S

$$

INZ006>009-017-018-025>027-171500-
NORTHEAST INDIANA

CITY           SKY/WX    TMP DP  RH WIND       PRES   REMARKS
ANGOLA *+      SUNNY     55  50  82 SW3       30.07F
FORT WAYNE     PTSUNNY   53  51  93 CALM      30.08F

$$

INZ028-029-035-036-043>045-051>053-171500-
WEST CENTRAL INDIANA

CITY           SKY/WX    TMP DP  RH WIND       PRES   REMARKS
GREENCASTLE +  SUNNY     54  52  94 CALM      30.07F
LAFAYETTE      MOSUNNY   51  50  96 CALM      30.06F FOG
TERRE HAUTE    SUNNY     54  51  90 CALM      30.06F

$$

INZ030>032-037>040-046>048-054>057-064-065-171500-
CENTRAL INDIANA

CITY           SKY/WX    TMP DP  RH WIND       PRES   REMARKS
ANDERSON       SUNNY     52  52 100 CALM      30.09S FOG
COLUMBUS       CLOUDY    48  48 100 CALM      30.08S VSB 1/4
FRANKFORT +    SUNNY    N/A N/A N/A CALM      30.07F HAZE
INDIANAPOLIS   MOSUNNY   56  51  84 W3        30.07S
-EAGLE CREEK   SUNNY     57  50  77 W3        30.06F
KOKOMO *+      SUNNY     55  52  88 CALM      30.07F
MT COMFORT *+  SUNNY     54 N/A N/A CALM      30.07F
SHELBYVILLE    PTSUNNY   54  51  90 CALM      30.07F FOG
ZIONSVILLE +   SUNNY     55  53  91 SW5       30.08S

$$

INZ033-034-041-042-049-050-058-059-171500-
EAST CENTRAL INDIANA

CITY           SKY/WX    TMP DP  RH WIND       PRES   REMARKS
MUNCIE         SUNNY     54  50  86 CALM      30.08S FOG

$$

INZ060-061-067>069-081>083-085>088-171500-
SOUTHWEST INDIANA

CITY           SKY/WX    TMP DP  RH WIND       PRES   REMARKS
EVANSVILLE     SUNNY     56  51  84 E5        30.06F FOG

$$

INZ062-063-066-070>080-084-089>092-171500-
SOUTH CENTRAL AND SOUTHEAST INDIANA

CITY           SKY/WX    TMP DP  RH WIND       PRES   REMARKS
BLOOMINGTON    SUNNY     56  50  80 CALM      30.07S
SEYMOUR +      CLOUDY    52  52 100 CALM      30.07F FOG

$$



USA.gov is the U.S. government's official web portal to all federal, state and local government web resources and services.